Location: Engelmannsreuth
(49.8125°N, 11.6497°E)
Time: 10:48:53
(UTC+00:00)

Cosmos 1605 Rocket - Pass Details

Date: 17 February 2020
Orbit: 944 x 1007 km, 82.9° (Epoch: 04 April)

Event Time Altitude Azimuth Distance (km) Brightness Sun altitude
Rises 04:03:17 0° 348° (NNW) 3,706 7.0 -22.8°
Reaches altitude 10° 04:05:51 10° 346° (NNW) 2,744 6.3 -22.4°
Maximum altitude 04:12:03 65° 266° (W) 1,058 3.9 -21.4°
Drops below altitude 10° 04:18:07 10° 186° (S) 2,683 6.2 -20.4°
Sets 04:20:36 0° 183° (S) 3,618 6.9 -20.0°
